Location: Buckland
(65.9785°N, 161.1281°W)
Time: 23:57:29
(UTC+00:00)

Altair - All Passes

Search period start: 05 December 2020 00:00
Search period end: 15 December 2020 00:00
Orbit: 1502 x 1682 km, 47.2° (Epoch: 05 December)

Date Brightness Start Highest point End Pass type
(mag) Time Alt. Az. Time Alt. Az. Time Alt. Az.
05 Dec - 06:05:58 10° S 06:11:37 18° SSE 06:17:13 10° ESE visible
05 Dec - 08:06:48 10° SW 08:13:36 24° S 08:20:20 10° SE visible
05 Dec - 10:09:35 10° WSW 10:15:40 20° SSW 10:21:43 10° SSE night (unlit)
06 Dec - 05:41:10 10° S 05:46:39 17° SSE 05:52:04 10° ESE visible
06 Dec - 07:41:48 10° SW 07:48:37 23° S 07:55:21 10° SE visible
06 Dec - 09:44:29 10° WSW 09:50:42 21° SSW 09:56:52 10° SSE visible
06 Dec - 11:50:23 10° WSW 11:52:14 11° SW 11:54:06 10° SSW night (unlit)
07 Dec - 05:16:24 10° S 05:21:42 17° SSE 05:26:56 10° ESE visible
07 Dec - 07:16:49 10° SW 07:23:38 23° S 07:30:21 10° SE visible
07 Dec - 09:19:23 10° WSW 09:25:44 21° SSW 09:32:01 10° SSE visible
07 Dec - 11:24:38 10° WSW 11:27:19 12° SW 11:30:01 10° SSW night (unlit)
08 Dec - 04:51:40 10° S 04:56:45 16° SSE 05:01:46 10° ESE visible
08 Dec - 06:51:51 10° SW 06:58:39 23° S 07:05:20 10° SE visible
08 Dec - 08:54:18 10° WSW 09:00:45 22° SSW 09:07:08 10° SSE visible
08 Dec - 10:59:07 10° WSW 11:02:24 12° SW 11:05:41 10° SSW night (unlit)
09 Dec - 04:26:57 10° S 04:31:48 15° SE 04:36:35 10° ESE visible
09 Dec - 06:26:54 10° SW 06:33:40 23° S 06:40:19 10° ESE visible
09 Dec - 08:29:14 10° WSW 08:35:47 22° SSW 08:42:15 10° SSE visible
09 Dec - 10:33:42 10° WSW 10:37:29 13° SW 10:41:14 10° SSW visible
10 Dec - 04:02:17 10° S 04:06:51 15° SE 04:11:22 10° ESE visible
10 Dec - 06:01:56 10° SW 06:08:41 23° SSE 06:15:19 10° ESE visible
10 Dec - 08:04:09 10° WSW 08:10:48 22° SSW 08:17:21 10° SSE visible
10 Dec - 10:08:22 10° WSW 10:12:33 14° SW 10:16:43 10° S visible
11 Dec - 03:37:39 10° S 03:41:55 14° SE 03:46:07 10° ESE visible
11 Dec - 05:36:59 10° SSW 05:43:41 22° SSE 05:50:17 10° ESE visible
11 Dec - 07:39:05 10° WSW 07:45:49 23° SSW 07:52:27 10° SE visible
11 Dec - 09:43:05 10° WSW 09:47:37 15° SW 09:52:08 10° S visible
12 Dec - 03:13:05 10° SSE 03:16:58 13° SE 03:20:49 10° ESE visible
12 Dec - 05:12:03 10° SSW 05:18:43 22° SSE 05:25:15 10° ESE visible
12 Dec - 07:14:02 10° WSW 07:20:50 23° S 07:27:32 10° SE visible
12 Dec - 09:17:49 10° WSW 09:22:41 16° SW 09:27:29 10° S visible
13 Dec - 02:48:35 10° SSE 02:52:02 12° SE 02:55:27 10° ESE visible
13 Dec - 04:47:07 10° SSW 04:53:44 22° SSE 05:00:12 10° ESE visible
13 Dec - 06:48:58 10° SW 06:55:51 23° S 07:02:36 10° SE visible
13 Dec - 08:52:36 10° WSW 08:57:44 16° SSW 09:02:49 10° S visible
14 Dec - 02:24:12 10° SSE 02:27:06 12° SE 02:29:59 10° ESE visible
14 Dec - 04:22:12 10° SSW 04:28:45 21° SSE 04:35:09 10° ESE visible
14 Dec - 06:23:55 10° SW 06:30:51 24° S 06:37:40 10° SE visible
14 Dec - 08:27:24 10° WSW 08:32:47 17° SSW 08:38:07 10° S visible
